Skip to main content Skip to accessibility
This website is not compatible with your web browser. You should install a newer browser. If you live in Jersey and need help upgrading call the States of Jersey web team on 440099.
Homegov.je

Information and public services for the Island of Jersey

L'înformâtion et les sèrvices publyis pouor I'Île dé Jèrri

  • Choose the service you want to log in to:

  • gov.je

    Update your notification preferences

  • one.gov.je

    Access government services

  • CAESAR

    Clear goods through customs or claim relief

  • Talentlink

    View or update your States of Jersey job application

Local METARs

METAR EGJJ 021920Z AUTO 30013KT 9999 FEW032/// 09/07 Q1018

METAR EGJB 021850Z 30011KT 9999 FEW035 09/07 Q1018

METAR LFRD 021930Z AUTO 31010KT 9999 BKN011 BKN016 OVC043 09/08 Q1019

METAR LFRC 021930Z AUTO 28008KT 9999 OVC044 08/07 Q1017

 

 

 

​Apologies to the disruption to normal service. Commercial Aviation Services are available from the Jersey Met Forecaster 01534 448765.

Times are in Greenwich Mean Time (GMT) and not British Summer Time (BST). They will be one hour different during BST.

Back to top
rating button